Location: Bothwell
(42.3833°S, 147.0000°E)
Time: 06:29:49
(UTC+10:00)

CUTE-I - Visible Passes

Search period start: 25 September 2022 00:00
Search period end: 05 October 2022 01:00
Orbit: 810 x 824 km, 98.7° (Epoch: 24 September)

Date Brightness Start Highest point End Pass type
(mag) Time Alt. Az. Time Alt. Az. Time Alt. Az.
25 Sep ? 04:52:58 10° NE 04:57:52 38° ESE 05:02:49 10° S visible
25 Sep ? 18:48:28 10° S 18:53:55 77° WSW 18:59:19 10° NNW visible
25 Sep ? 20:31:13 10° SW 20:33:00 12° SW 20:34:48 10° WSW visible
26 Sep ? 04:32:02 10° ENE 04:36:21 25° ESE 04:40:42 10° S visible
26 Sep ? 20:08:09 10° SSW 20:11:38 18° WSW 20:15:07 10° W visible
27 Sep ? 04:11:32 10° E 04:14:55 17° ESE 04:18:19 10° SSE visible
27 Sep ? 19:45:47 10° S 19:50:12 26° WSW 19:54:36 10° WNW visible
28 Sep ? 03:51:57 10° ESE 03:53:33 11° SE 03:55:10 10° SE visible
28 Sep ? 19:23:41 10° S 19:28:42 39° WSW 19:33:40 10° NW visible
29 Sep ? 05:05:52 10° NE 05:10:59 49° ESE 05:16:12 10° S visible
29 Sep ? 19:01:45 10° S 19:07:07 59° WSW 19:12:25 10° NNW visible
30 Sep ? 04:44:44 10° NE 04:49:27 32° ESE 04:54:13 10° S visible
30 Sep ? 18:39:59 10° SSE 18:45:28 90° WNW 18:50:52 10° NNW visible
30 Sep ? 20:22:03 10° SSW 20:24:40 14° WSW 20:27:17 10° W visible
01 Oct ? 04:23:57 10° ENE 04:27:58 22° ESE 04:32:00 10° SSE visible
01 Oct ? 19:59:22 10° SSW 20:03:16 21° WSW 20:07:10 10° WNW visible
02 Oct ? 05:03:41 10° E 05:06:33 15° ESE 05:09:26 10° SSE visible
02 Oct ? 20:37:07 10° S 20:41:48 30° WSW 20:46:28 10° NW visible
03 Oct ? 20:15:05 10° S 20:20:16 46° WSW 20:25:24 10° NW visible
04 Oct ? 05:57:33 10° NE 06:02:33 42° ESE 06:07:37 10° S visible
04 Oct ? 19:53:14 10° S 19:58:39 70° WSW 20:04:01 10° NNW visible
04 Oct ? 21:36:37 10° SW 21:37:39 11° SW 21:38:42 10° WSW visible
